{"data":{"norad_id":47281,"intl_designator":"2020-100Z","name":"ONEWEB-0135","alt_names":[],"object_type":"PAYLOAD","status":"ACTIVE","operator":null,"country":"UK","launch_date":"2020-12-18","launch_site_code":"VOSTO","launch_vehicle":null,"mission":null,"orbit_class":"UNKNOWN","rcs_meters":null,"size_class":null,"mass_kg":null,"dimensions":null,"purposes":["comms"],"wikipedia_slug":null,"has_3d_model":false,"image_url":null,"decayed_at":null,"tle_current":{"epoch":"2026-09-19T22:27:27.835776Z","epoch_age_seconds":63187,"freshness":"FRESH","line1":"1 47281U 20100Z   26262.93573884  .00000068  00000+0  15309-3 0  9994","line2":"2 47281  87.8977 331.8536 0001813  90.1088 270.0248 13.12442891277169","mean_motion":13.12442891,"eccentricity":0.0001813,"inclination_deg":87.8977,"raan_deg":331.8536,"arg_perigee_deg":90.1088,"mean_anomaly_deg":270.0248,"bstar":0.00015309,"rev_number":27716,"period_min":109.71905976822,"perigee_km":1212.347307043,"apogee_km":1215.100115737,"semimajor_km":7591.86071139,"source":"CELESTRAK","updated_at":"2026-09-20T09:00:44.580703Z"}}}